Temp
-8 -8 -7 -6 -6 -5 -5 -4 -4 -4 -4 -4 -4 -4 -4 -4 -5 -5 -5 -5 -4 -4 -5 -5 -5 -5 -5 -6 -6 -7 -7 -8 -9 -9 -9 -9 -9 -10 -10 -10 -10 -11 -10 -10 -10
-9 -8 -7 -7 -7 -6 -5 -5 -5 -5 -4 -4 -4 -4 -5 -4 -5 -5 -5 -5 -5 -5 -5 -5 -5 -5 -6 -6 -6 -6 -7 -8 -9 -9 -9 -10 -9 -9 -10 -10 -11 -10 -10 -10 -10
-9 -8 -8 -7 -7 -6 -5 -5 -5 -5 -5 -5 -5 -4 -5 -5 -5 -5 -5 -5 -5 -5 -5 -5 -6 -5 -6 -6 -6 -6 -7 -8 -8 -9 -9 -10 -10 -10 -10 -10 -10 -10 -10 -10 -11
-9 -9 -8 -8 -7 -6 -5 -5 -5 -5 -5 -5 -5 -5 -5 -5 -5 -5 -5 -5 -5 -5 -5 -5 -5 -5 -5 -6 -7 -7 -8 -9 -9 -9 -9 -10 -9 -10 -10 -10 -10 -10 -10 -10 -10
-9 -9 -8 -8 -7 -6 -6 -6 -5 -5 -5 -5 -5 -5 -5 -5 -5 -5 -5 -5 -5 -5 -5 -5 -5 -6 -6 -6 -8 -8 -9 -10 -9 -9 -9 -9 -9 -9 -9 -9 -10 -10 -10 -10 -11
-11 -9 -9 -8 -7 -6 -6 -6 -5 -5 -5 -5 -5 -5 -5 -5 -5 -5 -5 -5 -5 -5 -5 -5 -6 -6 -6 -7 -8 -8 -10 -9 -9 -9 -10 -10 -10 -10 -10 -10 -10 -10 -11 -11 -11
-11 -9 -9 -8 -8 -7 -7 -6 -5 -5 -5 -5 -5 -5 -5 -5 -5 -5 -5 -5 -5 -5 -6 -6 -6 -6 -6 -7 -8 -9 -9 -10 -10 -9 -10 -10 -10 -10 -11 -11 -11 -11 -11 -11 -11
-10 -10 -9 -9 -8 -8 -7 -6 -6 -5 -5 -5 -5 -5 -5 -5 -5 -5 -5 -5 -6 -6 -5 -6 -6 -7 -7 -8 -8 -8 -9 -10 -10 -10 -10 -10 -10 -10 -11 -10 -11 -11 -11 -11 -11
-11 -10 -10 -10 -8 -8 -7 -6 -6 -5 -5 -5 -5 -5 -5 -5 -5 -5 -5 -6 -6 -6 -5 -6 -6 -7 -8 -8 -8 -8 -9 -10 -10 -10 -10 -10 -10 -10 -11 -11 -11 -10 -11 -11 -11
-11 -10 -9 -10 -9 -8 -7 -6 -6 -5 -6 -6 -5 -5 -5 -5 -5 -6 -6 -5 -6 -6 -6 -6 -7 -8 -8 -9 -9 -10 -10 -10 -10 -11 -11 -11 -11 -10 -10 -11 -11 -11 -11 -11 -11
-10 -10 -9 -10 -9 -8 -7 -6 -6 -6 -6 -6 -5 -5 -5 -5 -5 -6 -6 -6 -6 -6 -6 -7 -7 -8 -8 -9 -10 -10 -10 -10 -11 -11 -11 -11 -10 -10 -10 -11 -11 -11 -12 -11 -11
-11 -11 -10 -10 -9 -9 -7 -6 -6 -6 -5 -6 -5 -5 -5 -5 -5 -5 -6 -6 -6 -6 -6 -7 -7 -7 -8 -8 -9 -10 -10 -11 -11 -11 -11 -11 -11 -10 -10 -10 -11 -11 -11 -11 -11
-11 -10 -10 -9 -9 -9 -8 -7 -6 -6 -6 -6 -5 -6 -6 -6 -6 -6 -6 -6 -6 -6 -7 -7 -7 -8 -8 -8 -9 -10 -10 -11 -11 -11 -11 -11 -11 -10 -10 -10 -11 -11 -11 -11 -12
-11 -11 -10 -11 -10 -9 -8 -7 -7 -7 -6 -6 -6 -6 -6 -6 -6 -6 -6 -6 -6 -6 -6 -7 -7 -7 -7 -8 -8 -9 -9 -9 -10 -10 -10 -10 -10 -10 -10 -10 -11 -11 -11 -11 -11
-11 -10 -11 -10 -10 -9 -8 -7 -7 -7 -7 -7 -6 -6 -6 -6 -6 -6 -6 -6 -6 -7 -7 -7 -7 -7 -8 -8 -8 -9 -10 -10 -10 -11 -11 -11 -11 -11 -11 -11 -11 -11 -11 -11 -11
-11 -11 -11 -12 -11 -9 -8 -9 -8 -7 -7 -7 -6 -6 -6 -7 -6 -7 -6 -6 -7 -7 -7 -8 -7 -8 -8 -8 -8 -9 -9 -9 -9 -10 -11 -11 -11 -11 -11 -11 -11 -10 -10 -11 -11
-11 -11 -12 -13 -11 -9 -10 -9 -8 -8 -7 -7 -7 -6 -6 -7 -7 -7 -7 -7 -7 -7 -8 -8 -8 -8 -8 -8 -8 -9 -9 -9 -9 -10 -10 -10 -11 -11 -11 -11 -11 -11 -11 -11 -11
-12 -12 -12 -11 -11 -10 -10 -9 -8 -8 -8 -7 -6 -7 -7 -7 -7 -7 -7 -7 -7 -8 -8 -8 -8 -9 -9 -9 -9 -9 -9 -9 -9 -9 -10 -10 -10 -10 -11 -11 -11 -11 -11 -11 -12
-12 -13 -12 -11 -11 -10 -10 -9 -9 -8 -8 -7 -7 -7 -7 -7 -7 -7 -7 -8 -8 -8 -8 -8 -9 -9 -8 -8 -8 -9 -9 -9 -9 -9 -9 -9 -10 -10 -11 -11 -11 -11 -11 -12 -12
-12 -13 -12 -12 -12 -11 -10 -10 -9 -9 -8 -8 -7 -7 -7 -7 -7 -7 -8 -8 -8 -8 -8 -8 -8 -8 -8 -8 -8 -9 -9 -9 -9 -9 -10 -10 -10 -11 -10 -11 -11 -12 -12 -12 -12
-13 -13 -12 -12 -12 -12 -11 -10 -10 -9 -8 -8 -7 -8 -7 -7 -8 -8 -8 -8 -8 -8 -8 -8 -8 -9 -8 -8 -8 -8 -9 -9 -9 -10 -10 -10 -10 -11 -11 -11 -11 -12 -12 -12 -12
-12 -13 -12 -12 -13 -13 -12 -10 -10 -9 -8 -8 -8 -8 -8 -8 -8 -8 -8 -9 -9 -9 -9 -8 -9 -8 -9 -9 -8 -8 -8 -9 -9 -9 -10 -10 -10 -10 -11 -11 -12 -11 -12 -12 -12
-13 -12 -12 -12 -12 -13 -12 -11 -10 -9 -8 -9 -9 -9 -9 -8 -8 -8 -9 -9 -9 -9 -9 -9 -9 -9 -9 -9 -9 -9 -9 -9 -9 -9 -10 -10 -10 -11 -11 -11 -11 -11 -12 -12 -13
-13 -12 -12 -12 -12 -12 -11 -10 -10 -10 -9 -10 -9 -9 -9 -9 -9 -9 -9 -9 -10 -9 -9 -9 -9 -9 -9 -9 -9 -9 -10 -10 -10 -10 -10 -10 -10 -11 -11 -11 -12 -12 -13 -13 -13
-13 -12 -12 -12 -12 -11 -11 -10 -10 -10 -11 -10 -10 -10 -9 -10 -10 -10 -11 -10 -9 -9 -9 -9 -9 -9 -9 -9 -9 -10 -10 -10 -10 -10 -10 -10 -10 -11 -11 -12 -12 -13 -13 -13 -13
-13 -13 -12 -12 -12 -11 -10 -11 -10 -11 -11 -11 -10 -10 -10 -10 -10 -10 -10 -10 -9 -9 -9 -9 -9 -9 -9 -9 -9 -10 -10 -10 -10 -10 -10 -10 -11 -11 -12 -12 -12 -12 -12 -12 -12
-13 -13 -13 -12 -12 -12 -11 -11 -11 -11 -11 -11 -11 -10 -10 -10 -11 -11 -10 -10 -9 -9 -9 -9 -9 -9 -10 -10 -9 -10 -10 -10 -10 -10 -11 -11 -11 -11 -12 -12 -12 -12 -12 -13 -13
Height
5863 5868 5871 5873 5873 5876 5879 5882 5882 5884 5886 5887 5887 5887 5887 5889 5889 5888 5888 5887 5887 5887 5885 5885 5884 5882 5881 5881 5882 5881 5882 5882 5883 5884 5885 5884 5882 5881 5882 5882 5883 5882 5883 5882 5879
5860 5865 5867 5869 5870 5873 5877 5880 5880 5882 5884 5886 5886 5886 5887 5887 5888 5888 5889 5886 5887 5887 5887 5885 5884 5884 5882 5882 5882 5881 5881 5882 5881 5882 5883 5883 5879 5879 5879 5880 5881 5882 5883 5883 5879
5854 5858 5861 5866 5868 5870 5874 5877 5878 5880 5883 5885 5885 5885 5886 5886 5888 5888 5888 5887 5887 5887 5886 5885 5884 5884 5883 5882 5882 5882 5881 5882 5881 5882 5882 5882 5879 5879 5879 5881 5881 5882 5884 5880 5875
5848 5853 5857 5862 5865 5867 5871 5874 5877 5879 5882 5883 5883 5883 5885 5886 5888 5887 5888 5886 5886 5886 5885 5885 5885 5885 5885 5883 5882 5882 5882 5883 5881 5881 5881 5882 5880 5878 5879 5880 5881 5881 5882 5878 5876
5845 5848 5853 5857 5859 5865 5867 5872 5874 5877 5880 5881 5882 5882 5884 5885 5887 5887 5887 5887 5886 5886 5885 5884 5883 5883 5883 5882 5882 5883 5883 5880 5880 5879 5880 5880 5879 5878 5877 5878 5880 5880 5878 5876 5874
5840 5843 5849 5854 5857 5861 5865 5868 5871 5875 5878 5880 5880 5881 5883 5885 5885 5886 5886 5887 5887 5886 5886 5885 5884 5883 5881 5880 5881 5882 5881 5879 5880 5879 5880 5879 5879 5878 5878 5879 5879 5879 5876 5873 5870
5837 5839 5843 5850 5855 5859 5862 5866 5870 5872 5877 5878 5879 5880 5882 5884 5884 5885 5885 5886 5886 5886 5884 5884 5883 5883 5883 5882 5881 5882 5881 5880 5880 5880 5881 5880 5879 5877 5877 5877 5876 5876 5874 5870 5866
5833 5836 5840 5846 5852 5856 5859 5864 5867 5870 5874 5875 5878 5879 5881 5882 5884 5884 5884 5885 5885 5885 5884 5884 5883 5882 5882 5882 5883 5882 5882 5881 5881 5880 5880 5880 5879 5878 5877 5875 5873 5872 5871 5869 5866
5829 5832 5838 5843 5849 5852 5856 5861 5865 5868 5871 5874 5877 5878 5880 5882 5883 5883 5884 5884 5884 5885 5884 5883 5882 5881 5880 5880 5880 5881 5882 5881 5882 5880 5879 5879 5877 5876 5874 5873 5871 5869 5865 5863 5861
5825 5827 5834 5840 5845 5849 5854 5859 5863 5868 5870 5872 5874 5877 5879 5881 5881 5882 5883 5882 5884 5884 5884 5882 5880 5880 5880 5879 5880 5880 5881 5880 5879 5880 5878 5877 5876 5873 5872 5871 5870 5869 5865 5861 5857
5821 5823 5831 5837 5843 5847 5853 5857 5863 5865 5867 5870 5872 5875 5877 5879 5880 5880 5881 5881 5883 5883 5882 5882 5881 5880 5879 5879 5880 5880 5879 5880 5878 5878 5878 5876 5875 5875 5872 5871 5869 5868 5865 5863 5858
5819 5822 5828 5833 5839 5844 5849 5855 5859 5862 5865 5868 5870 5873 5876 5877 5879 5879 5880 5881 5881 5882 5880 5881 5880 5880 5879 5879 5879 5878 5879 5877 5876 5876 5877 5876 5875 5875 5874 5871 5869 5867 5865 5864 5860
5817 5819 5823 5830 5834 5841 5847 5853 5855 5859 5863 5866 5869 5872 5874 5876 5877 5878 5878 5878 5880 5880 5879 5879 5880 5880 5878 5878 5878 5876 5876 5876 5874 5875 5874 5874 5873 5872 5872 5871 5870 5867 5863 5862 5860
5814 5816 5819 5825 5833 5839 5843 5848 5854 5857 5860 5865 5868 5871 5873 5873 5875 5876 5876 5878 5878 5878 5877 5878 5878 5879 5878 5878 5877 5876 5875 5875 5873 5873 5872 5871 5872 5872 5870 5869 5868 5866 5862 5861 5859
5809 5812 5814 5818 5827 5835 5840 5844 5850 5854 5858 5864 5866 5868 5870 5872 5873 5874 5874 5875 5876 5876 5877 5878 5878 5878 5877 5877 5876 5876 5875 5873 5873 5872 5870 5868 5868 5869 5867 5865 5864 5861 5859 5857 5854
5806 5809 5812 5816 5825 5831 5836 5842 5848 5853 5855 5860 5863 5865 5867 5868 5870 5871 5872 5873 5874 5875 5875 5877 5877 5876 5877 5877 5876 5875 5873 5872 5871 5870 5869 5867 5866 5866 5864 5861 5860 5858 5856 5851 5847
5802 5805 5809 5815 5821 5827 5834 5839 5845 5847 5852 5857 5860 5862 5863 5866 5867 5868 5871 5872 5872 5873 5874 5876 5875 5875 5875 5876 5875 5874 5872 5871 5871 5868 5867 5865 5862 5860 5858 5856 5855 5853 5848 5843 5837
5798 5802 5806 5814 5820 5824 5830 5836 5840 5844 5848 5853 5856 5859 5861 5864 5865 5867 5868 5869 5871 5871 5872 5874 5874 5874 5874 5874 5874 5872 5871 5870 5869 5867 5865 5861 5858 5856 5852 5849 5847 5842 5837 5832 5827
5793 5799 5804 5809 5816 5822 5828 5831 5836 5841 5846 5850 5854 5857 5858 5861 5864 5865 5866 5867 5869 5869 5871 5872 5872 5872 5872 5872 5872 5870 5870 5868 5866 5864 5861 5857 5854 5851 5849 5845 5839 5833 5827 5822 5818
5788 5795 5801 5805 5811 5817 5823 5827 5832 5838 5843 5847 5852 5854 5856 5860 5862 5863 5864 5865 5866 5867 5869 5870 5870 5870 5870 5870 5870 5869 5869 5868 5864 5862 5858 5854 5850 5844 5840 5836 5830 5824 5819 5813 5808
5784 5791 5797 5802 5805 5813 5819 5825 5830 5836 5841 5845 5849 5851 5854 5857 5859 5860 5862 5863 5865 5865 5867 5868 5870 5870 5868 5868 5868 5868 5866 5865 5861 5858 5854 5850 5848 5842 5834 5829 5824 5819 5813 5808 5801
5780 5787 5793 5798 5804 5810 5816 5822 5828 5833 5838 5843 5846 5848 5851 5855 5855 5857 5859 5861 5863 5864 5865 5866 5866 5867 5865 5865 5866 5865 5864 5861 5858 5855 5851 5847 5844 5837 5832 5826 5820 5816 5810 5804 5797
5776 5783 5789 5795 5801 5806 5813 5819 5825 5830 5835 5840 5843 5846 5849 5851 5854 5855 5858 5860 5861 5862 5863 5863 5863 5862 5861 5864 5863 5863 5861 5858 5853 5850 5846 5842 5838 5832 5827 5823 5818 5813 5807 5800 5793
5772 5779 5785 5792 5797 5804 5810 5817 5822 5827 5831 5835 5840 5845 5848 5850 5852 5854 5856 5857 5858 5859 5859 5860 5859 5858 5859 5860 5860 5858 5857 5853 5850 5846 5843 5839 5834 5829 5825 5820 5815 5808 5802 5796 5789
5767 5775 5782 5787 5793 5799 5807 5814 5818 5823 5827 5831 5838 5842 5846 5848 5850 5851 5853 5854 5855 5856 5857 5857 5856 5856 5856 5856 5857 5855 5853 5850 5846 5843 5840 5836 5831 5827 5822 5816 5810 5805 5799 5791 5782
5762 5771 5777 5784 5789 5797 5804 5810 5814 5819 5824 5829 5834 5839 5843 5844 5847 5849 5850 5852 5852 5854 5854 5853 5853 5853 5853 5853 5853 5851 5849 5846 5844 5840 5836 5831 5827 5822 5817 5811 5804 5798 5790 5782 5773
5757 5766 5773 5780 5787 5795 5800 5805 5811 5816 5822 5826 5830 5835 5839 5840 5844 5847 5848 5849 5850 5851 5851 5851 5850 5850 5851 5849 5849 5848 5845 5842 5839 5835 5831 5827 5823 5818 5812 5805 5796 5789 5780 5769 5760
Wind_Speed
32 26 21 15 16 18 19 19 14 12 9 8 8 7 4 4 4 5 6 3 3 4 5 6 7 6 5 5 3 5 6 6 10 9 9 15 11 4 8 10 11 16 19 24 31
27 40 32 16 13 20 21 20 16 13 10 10 9 6 4 4 4 4 5 3 2 4 5 6 7 6 6 6 7 7 7 6 9 11 11 9 13 12 8 9 14 17 17 23 22
25 28 29 23 17 20 23 20 17 14 12 11 9 6 6 4 3 4 6 2 1 2 3 2 2 4 4 5 8 7 9 4 7 11 15 14 16 17 14 14 13 15 14 12 12
27 27 29 26 20 21 23 20 17 14 14 12 9 7 7 6 5 7 7 4 2 2 2 4 4 5 2 1 8 7 2 6 11 11 18 21 23 20 17 16 13 14 15 15 18
27 30 32 19 20 25 22 20 18 16 16 13 9 7 8 6 5 6 6 5 4 4 4 7 9 10 7 1 3 2 4 14 14 13 11 7 7 9 13 12 12 9 13 18 22
22 30 33 22 23 24 22 22 20 19 16 13 9 6 8 7 7 6 5 5 4 4 7 8 8 10 9 6 5 8 10 13 9 7 6 8 9 9 8 8 8 10 14 20 24
22 22 26 33 21 23 21 22 21 19 17 12 8 7 7 9 8 8 7 7 7 6 7 6 8 10 8 8 5 7 12 10 3 5 5 7 11 11 13 16 14 14 16 23 24
23 21 27 31 23 23 24 24 22 20 17 12 8 6 6 8 9 9 8 8 9 10 8 8 8 8 6 9 11 9 8 8 5 4 3 5 8 11 12 16 15 16 19 18 23
24 20 28 30 23 23 24 22 24 22 18 13 9 5 4 5 7 8 9 9 11 12 9 8 7 6 8 10 11 8 5 7 6 5 7 6 11 17 15 14 15 22 23 28 26
21 20 32 27 21 20 21 22 23 23 18 15 11 6 5 6 6 7 10 10 11 12 8 7 6 8 9 11 10 8 8 8 7 7 7 9 14 18 11 13 17 23 30 28 22
19 12 31 31 27 18 23 25 24 22 20 17 13 7 5 6 9 7 8 10 12 11 6 7 7 9 11 12 13 15 12 11 12 10 9 10 13 17 17 18 23 28 27 19 16
19 18 30 35 31 20 22 27 26 25 21 19 12 10 9 7 8 10 9 10 12 8 5 6 7 9 10 12 15 18 14 9 12 13 12 15 20 20 20 22 28 31 22 15 14
21 20 18 43 34 24 25 27 24 24 21 19 13 12 11 8 8 11 11 10 10 9 6 5 3 4 6 5 7 14 17 17 20 18 20 22 24 25 24 24 25 20 30 14 16
22 17 18 52 43 30 26 29 30 24 21 19 18 14 10 9 11 12 12 11 10 10 7 3 5 8 7 4 6 8 11 13 17 18 21 21 18 15 18 19 21 24 22 17 20
24 17 17 47 39 28 28 25 25 25 24 21 17 13 9 11 14 14 13 13 11 11 6 5 7 7 8 7 7 7 9 10 12 13 16 16 18 18 21 22 22 18 19 23 27
24 19 21 30 33 28 35 32 28 27 27 22 18 14 15 16 17 16 15 15 14 14 8 6 7 7 9 8 7 8 8 8 11 12 15 19 25 23 25 25 21 22 25 29 29
26 21 20 32 23 26 34 33 32 29 28 26 19 14 13 14 15 14 14 15 17 13 9 7 8 9 6 6 7 7 8 10 11 13 16 18 22 23 24 24 24 25 26 26 24
28 21 18 41 25 26 26 30 30 31 30 25 19 18 15 14 12 13 15 17 16 12 11 10 9 6 4 4 6 6 7 8 9 12 16 19 22 23 24 27 29 27 28 29 28
31 30 25 35 32 31 27 29 30 31 28 23 20 19 17 15 16 14 16 17 18 15 13 12 9 8 7 6 6 7 11 12 15 16 20 24 26 25 25 26 28 31 32 29 30
32 31 30 22 43 29 28 30 30 30 26 23 22 18 16 15 16 15 15 18 19 18 16 15 14 11 10 8 7 9 11 14 17 19 21 25 26 30 31 32 32 32 32 36 38
33 32 31 32 44 30 29 32 29 28 26 23 23 18 15 15 15 17 17 19 18 19 18 17 14 14 12 9 9 12 15 17 20 23 24 26 27 28 33 32 31 33 35 38 42
35 35 31 33 35 30 30 31 27 29 28 24 20 16 15 15 17 19 19 19 17 14 16 17 18 15 16 13 11 13 15 18 21 23 24 27 28 31 30 30 32 34 36 40 44
34 36 31 34 34 35 30 29 29 30 29 24 18 14 14 16 16 21 16 15 14 16 16 16 17 18 18 15 14 15 18 19 22 25 27 30 33 32 31 32 32 34 38 43 47
36 39 33 37 35 36 34 32 32 33 29 22 17 15 18 16 14 13 10 11 12 14 15 17 18 19 20 17 16 17 18 19 21 25 28 31 31 31 33 32 33 37 41 45 48
40 40 35 38 37 37 36 34 34 32 28 22 20 19 19 15 14 11 9 12 15 17 16 18 18 18 18 16 17 16 16 17 20 25 27 29 31 33 33 34 37 40 44 47 50
43 40 37 37 34 32 33 36 35 34 27 24 22 22 19 17 17 15 11 11 16 14 13 14 15 15 16 16 16 17 17 18 19 22 25 29 32 33 33 37 41 44 49 51 53
44 40 42 35 30 32 34 32 32 30 29 27 25 25 20 19 17 14 12 13 13 15 13 13 13 13 15 17 17 17 19 20 23 26 28 29 30 32 36 39 45 48 52 56 58
Wind_Direction
232 234 220 226 218 211 207 206 202 213 223 233 226 229 236 257 265 259 260 254 325 346 3 6 357 351 17 8 340 270 263 236 225 231 261 288 273 261 299 314 313 318 331 334 335
233 229 233 226 227 215 207 203 199 207 216 220 217 215 229 254 256 254 245 233 351 4 13 10 10 0 7 2 350 311 288 274 246 257 272 258 262 288 254 262 294 317 323 331 343
233 243 239 224 237 219 208 199 200 204 213 216 211 211 234 252 239 233 230 228 10 1 10 346 356 334 9 358 342 308 269 310 277 273 277 273 262 251 261 269 299 299 320 329 325
237 237 216 219 229 218 205 199 201 200 211 208 209 224 238 245 234 224 232 227 171 225 265 290 307 289 271 288 307 286 340 307 290 286 273 262 262 260 267 279 291 297 323 347 331
241 235 211 221 221 217 201 203 200 198 209 202 208 233 240 242 253 244 243 238 201 227 282 306 310 312 317 308 206 200 221 249 270 267 263 275 298 281 279 286 294 317 340 340 341
238 233 208 214 217 209 206 203 199 200 204 203 204 226 240 236 237 240 237 234 229 287 298 294 304 303 304 283 223 209 221 221 218 248 346 355 335 350 9 6 350 334 338 330 339
232 233 226 204 225 210 206 203 200 194 204 197 203 221 244 241 243 237 244 242 249 270 284 299 292 277 300 282 239 195 193 216 201 309 350 349 359 346 339 339 345 333 312 339 329
229 223 215 200 219 212 203 202 199 190 196 186 200 212 243 249 252 242 243 248 260 264 275 292 295 287 270 250 228 221 212 203 202 252 304 336 6 328 317 329 332 334 330 321 322
240 229 201 209 216 208 200 202 195 189 184 185 191 179 215 240 244 253 248 253 263 275 282 292 289 291 261 262 269 278 191 216 218 207 221 292 335 326 314 313 321 330 332 329 330
231 219 205 193 203 211 202 198 190 199 190 187 181 196 233 239 231 252 254 255 265 269 283 301 291 273 262 262 249 267 235 223 245 229 256 311 334 340 344 331 331 332 323 322 327
229 212 205 200 211 214 201 195 195 192 191 190 184 207 222 255 250 226 250 262 264 270 295 289 270 261 266 256 250 269 263 257 240 263 273 297 322 322 331 329 326 328 327 318 324
229 222 207 213 216 213 202 202 196 196 195 191 193 202 214 237 258 251 246 258 262 266 250 252 282 279 268 273 269 267 241 251 249 249 263 287 305 316 311 316 318 319 310 311 319
230 235 230 211 216 211 203 199 191 197 201 197 194 199 212 223 247 252 255 259 267 248 222 253 286 284 265 275 253 252 257 254 266 271 279 285 291 302 307 300 305 309 300 313 295
228 237 237 196 215 213 204 194 205 200 202 198 194 199 216 239 253 260 255 259 247 227 230 274 264 254 286 308 318 309 305 280 278 293 288 287 293 291 292 292 297 300 303 282 310
226 233 234 208 201 207 200 197 204 199 200 197 190 199 224 263 264 261 259 250 225 221 227 247 255 273 282 294 309 319 292 305 302 313 306 305 301 298 299 300 306 297 291 296 305
217 217 216 198 195 197 209 213 219 202 195 195 193 216 258 264 255 252 249 243 222 224 226 247 277 280 293 290 323 336 315 312 315 302 289 287 289 292 292 295 303 300 302 306 303
214 204 207 184 204 194 201 205 206 200 195 196 211 235 241 258 252 250 243 233 222 219 221 234 267 290 333 314 341 336 315 310 302 304 299 293 296 298 300 302 312 316 314 311 310
210 201 201 202 195 197 200 200 199 199 200 206 221 236 243 261 260 247 232 228 221 219 225 243 265 279 314 320 319 312 321 301 306 302 306 315 320 325 323 321 323 321 316 316 316
211 204 201 211 193 197 204 202 200 202 204 209 221 235 240 253 261 245 227 221 219 216 229 241 241 257 274 289 324 335 324 313 318 325 324 325 324 326 324 324 320 315 318 321 318
212 207 205 224 191 195 205 204 202 204 209 211 229 228 236 258 258 235 224 222 221 230 238 243 253 270 281 300 326 318 315 313 312 318 321 325 327 327 325 322 322 324 327 329 328
211 208 202 211 188 193 206 208 203 206 214 218 226 226 240 265 256 230 219 225 227 242 248 252 261 279 282 301 308 304 305 316 320 322 324 323 325 324 324 324 323 327 328 327 328
212 205 205 200 199 200 206 201 204 209 212 213 226 230 250 254 249 237 220 224 230 243 255 265 271 270 277 292 301 304 309 317 315 317 317 318 327 326 324 323 325 326 325 326 326
209 201 201 195 195 198 209 208 205 210 213 208 214 234 256 253 247 237 232 230 234 248 255 263 269 274 278 292 304 308 312 312 316 317 322 323 323 324 324 321 321 323 324 325 324
206 201 203 193 198 200 207 204 204 209 208 208 222 236 250 243 243 247 240 229 229 241 248 261 269 275 284 295 302 307 307 314 313 315 319 320 322 319 318 319 322 325 324 322 320
206 200 201 197 202 202 203 201 206 210 211 214 221 235 239 234 235 233 249 234 233 248 267 269 271 279 287 297 300 296 303 304 309 318 323 322 319 320 322 322 320 319 320 318 320
205 201 202 198 200 201 201 202 207 210 212 222 232 235 229 222 228 227 243 240 247 266 278 280 277 282 290 291 291 298 298 302 316 321 322 321 322 323 319 317 318 320 321 320 320
204 202 202 198 198 196 196 199 202 212 219 225 229 233 222 219 228 233 234 247 272 278 284 286 288 292 289 290 294 297 302 312 320 322 322 320 321 319 319 320 321 322 322 324 326